SCP
-0 -0 -0 -0 -0 -0 -0 -0 -0 0 0 0 0 0 0 0 0 0 0 0 0 0 0 0 0 0 0 0 0 0 0 0 0 0 -0 -0 -0 -0 -0 -0 -0 -0 -0
-0 -0 -0 -0 -0 -0 -0 -0 -0 -0 0 0 0 0 0 0 0 0 0 0 0 0 0 0 0 0 0 0 0 0 0 0 0 0 0 -0 0 -0 -0 -0 -0 -0 -0
-0 -0 -0 -0 -0 -0 -0 -0 -0 -0 -0 0 0 0 0 0 0 0 0 0 0 0 0 0 0 0 0 0 0 0 0 0 0 0 0 0 0 0 0 -0 -0 -0 -0
-0 -0 -0 -0 -0 -0 -0 -0 -0 -0 -0 -0 -0 0 0 0 0 0 0 0 0 0 0 0 0 0 0 0 0 0 0 0 0 0 0 0 0 0 0 0 0 0 0
-0 -0 -0 -0 -0 -0 -0 -0 -0 -0 -0 -0 -0 -0 0 0 0 0 0 0 0 0 0 0 0 0 0 0 0 0 0 0 0 0 0 0 0 0 0 0 0 0 0
-0 -0 -0 -0 0 -0 -0 -0 -0 -0 -0 -0 -0 -0 0 0 0 0 0 0 0 0 0 0 0 0 0 0 0 0 0 0 0 0 0 0 0 0 0 0 0 0 0
-0 -0 -0 -0 0 0 0 0 0 0 0 0 0 0 0 0 0 0 0 0 0 0 0 0 0 0 0 0 0 0 0 0 0 0 0 0 0 0 0 0 0 0 0
-0 -0 -0 -0 0 0 0 0 0 0 0 0 0 0 0 0 0 0 0 0 0 0 0 0 0 0 0 0 0 0 0 0 0 0 0 0 0 0 0 0 0 0 0
0 0 0 -0 -0 0 0 0 0 0 0 0 0 0 0 0 0 0 0 0 0 0 0 0 0 0 0 0 0 0 0 0 0 0 0 0 0 0 0 0 0 0 0
0 0 0 0 -0 -0 -0 0 0 0 0 0 0 0 0 0 0 0 0 0 0 0 0 0 0 0 0 0 0 0 0 0 0 0 0 0 0 0 0 0 0 0 0
0 0 0 0 0 0 0 0 0 0 0 0 0 0 0 0 0 0 0 0 0 0 0 0 0 0 0 0 0 0 0 0 0 0 0 0 0 0 0 0 0 0 0
0 0 0 0 0 0 0 0 0 0 0 0 0 0 0 0 0 0 0 0 0 0 0 0 0 0 0 0 0 0 0 0 0 0 0 0 0 0 0 0 0 0 0
0 0 0 0 0 0 0 0 0 0 0 0 0 0 0 0 0 0 0 0 0 0 0 0 0 0 0 0 0 0 0 0 0 0 0 0 0 0 0 0 0 0 0
0 0 0 0 0 0 0 0 0 0 0 0 0 0 0 0 0 0 0 0 0 0 0 0 0 0 0 0 0 0 0 0 0 0 0 0 0 0 0 0 0 0 0
0 0 0 0 0 0 0 0 0 0 0 0 0 0 0 0 0 0 0 0 0 0 0 0 0 0 0 0 0 0 0 0 0 0 0 0 0 0 0 0 0 0 0
0 0 0 0 0 0 0 0 0 0 0 0 0 0 0 0 0 0 0 0 0 0 0 0 0 0 0 0 0 0 0 0 0 0 0 0 0 0 0 0 0 0 0
0 0 0 0 0 0 0 0 0 0 0 0 0 0 0 0 0 0 0 0 0 0 0 0 0 0 0 0 0 0 0 0 0 0 0 0 0 0 0 0 0 0 0
0 0 0 0 0 0 0 0 0 0 0 0 0 0 0 0 0 0 0 0 0 0 0 0 0 0 0 0 0 0 0 0 0 0 0 0 0 0 0 0 0 0 0
0 0 0 0 0 0 0 0 0 0 0 0 0 0 0 0 0 0 0 0 0 0 0 0 0 0 0 0 0 0 0 0 0 0 0 0 0 0 0 0 0 0 0
0 0 0 0 0 0 0 0 0 0 0 0 0 0 0 0 0 0 0 0 0 0 0 0 0 0 0 0 0 0 0 0 0 0 0 0 0 0 0 0 0 0 0
0 0 0 0 0 0 0 0 0 0 0 0 0 0 0 0 0 0 0 0 0 0 0 0 0 0 0 0 0 0 0 0 0 0 0 0 0 0 0 0 0 0 0
0 0 0 0 0 0 0 0 0 0 0 0 0 0 0 0 0 0 0 0 0 0 0 0 0 0 0 0 0 0 0 0 0 0 0 0 0 0 0 0 0 0 0
0 0 0 0 0 0 0 0 0 0 0 0 0 0 0 0 0 0 0 0 0 0 0 0 0 0 0 0 0 0 0 0 0 0 0 0 0 0 0 0 0 0 0
0 0 0 0 0 0 0 0 0 0 0 0 0 0 0 0 0 0 0 0 0 0 0 0 0 0 0 0 0 0 0 0 0 0 0 0 0 0 0 0 0 0 0
0 0 0 0 0 0 0 -0 0 0 0 0 0 0 0 0 0 0 0 0 0 0 0 0 0 0 0 0 0 0 0 0 0 0 0 0 0 0 0 0 0 0 0
0 0 0 0 0 0 0 0 0 -0 0 0 0 0 0 0 0 0 0 0 0 0 0 0 0 0 0 0 0 0 0 0 0 0 0 0 0 0 0 0 0 0 0
Wind_Speed_500mb
28 33 42 42 41 37 34 32 29 26 23 21 18 15 14 12 9 7 6 6 6 7 10 10 8 8 8 2 3 2 3 4 5 7 9 8 9 12 14 14 14 15 16
31 34 41 41 40 39 35 32 29 25 24 22 21 22 19 15 13 11 9 6 6 8 6 6 7 5 3 4 4 4 3 3 2 4 6 7 4 4 7 8 8 9 8
28 37 40 40 40 39 36 33 30 27 24 21 21 18 19 20 20 17 16 14 12 14 8 7 6 7 4 2 4 4 5 5 3 4 7 3 9 4 5 6 8 8 6
25 39 42 42 41 41 37 34 32 30 27 24 23 22 23 25 26 21 19 19 19 20 14 12 11 10 7 7 6 5 6 5 5 5 5 6 3 4 8 8 8 8 5
24 40 41 45 42 41 40 38 36 34 31 28 24 24 25 29 26 22 20 21 22 23 17 17 16 16 14 13 13 12 11 10 7 8 8 8 4 5 4 8 8 8 9
26 35 41 42 46 42 41 39 38 37 33 30 26 25 22 22 19 18 18 20 24 23 19 20 20 17 16 15 14 15 15 15 15 13 9 10 22 15 7 9 9 7 9
29 35 40 40 46 47 45 43 41 38 36 36 36 34 25 22 20 20 21 22 22 20 20 20 16 16 15 12 11 9 11 13 17 17 16 15 22 16 14 15 15 14 12
29 35 40 41 45 46 46 45 45 42 43 43 41 32 27 24 20 20 21 21 21 20 19 17 13 9 7 5 5 4 5 7 9 11 13 22 18 17 17 18 19 18 18
29 35 40 41 45 47 47 47 47 47 50 50 47 34 32 28 23 23 24 22 22 20 17 14 12 10 8 7 7 7 7 8 9 9 11 18 15 18 16 19 21 22 21
30 36 41 43 47 51 51 52 49 49 52 53 51 43 38 31 27 26 26 25 24 23 20 18 16 13 10 9 9 9 9 9 10 12 16 14 16 17 17 18 21 22 23
36 40 43 46 47 50 53 55 56 56 55 56 55 47 43 36 35 35 32 30 28 25 23 20 17 14 12 11 11 11 12 12 12 14 16 15 17 18 18 18 19 21 23
43 45 47 49 50 51 52 54 59 61 62 62 59 53 49 45 42 40 39 36 34 31 28 25 21 19 17 15 14 13 13 13 13 15 15 16 17 19 19 19 20 22 23
41 47 51 53 54 56 58 59 60 62 66 65 64 59 53 51 50 46 45 43 40 37 35 31 27 24 20 17 14 13 12 13 14 15 15 16 17 17 18 19 21 22 23
42 47 52 56 60 61 64 66 64 62 66 69 67 63 61 59 57 51 51 48 46 42 40 35 31 26 23 20 17 15 14 14 15 16 15 16 17 16 16 16 17 19 20
48 51 56 58 63 64 68 69 67 67 66 66 63 68 66 63 61 56 57 53 50 46 46 39 36 32 28 24 21 18 17 15 16 16 17 17 17 17 15 13 12 12 3
48 52 55 60 60 65 70 71 73 72 72 70 70 70 68 66 65 63 62 59 55 53 49 45 40 37 34 30 27 23 20 17 16 16 16 15 16 17 17 12 7 4 16
53 47 53 52 57 61 68 73 75 76 75 76 74 75 73 71 72 68 67 65 61 59 56 53 49 45 39 34 30 25 22 19 18 17 16 16 15 17 19 17 15 18 21
43 49 52 52 56 58 64 71 77 81 83 80 79 79 79 76 77 75 73 71 67 64 61 59 55 50 45 40 36 31 26 23 21 20 19 19 18 17 19 19 23 37 35
36 36 44 53 62 66 70 72 74 76 82 82 80 80 79 79 79 81 78 75 73 70 68 65 61 56 51 46 41 37 33 29 25 23 23 23 24 24 25 24 23 24 26
21 24 28 34 44 52 59 65 71 69 75 75 75 78 79 81 80 82 82 80 78 75 74 71 66 61 56 51 46 41 37 34 30 30 29 29 28 27 28 29 31 32 33
16 10 13 21 30 38 44 54 61 70 71 71 75 75 76 80 81 82 86 85 84 80 77 74 71 67 61 56 49 42 39 40 37 38 36 36 34 33 32 32 33 32 32
24 13 7 4 16 25 27 33 36 35 48 55 64 69 76 80 84 85 87 90 90 84 81 80 78 76 69 67 57 41 26 39 44 43 44 43 41 39 38 37 37 32 31
45 39 24 14 6 4 15 24 27 34 40 33 48 57 69 73 82 86 89 92 93 91 91 88 87 86 81 76 67 36 16 21 34 46 50 46 43 40 40 39 37 36 35
50 50 52 45 33 22 11 7 13 16 24 23 32 40 53 60 69 78 84 88 96 97 97 96 93 91 86 85 76 77 58 26 17 16 38 44 46 46 48 47 44 41 39
49 49 45 43 40 37 28 14 8 14 18 20 21 31 39 45 49 54 70 84 96 102 101 100 99 100 98 93 88 85 80 58 40 31 27 42 50 54 55 52 50 47 42
47 47 46 45 45 41 33 26 18 12 13 18 21 30 36 39 45 45 53 67 84 99 104 104 103 103 102 100 99 95 89 87 79 59 40 36 46 53 64 63 60 56 49
Wind_Direction_500mb
200 197 192 191 191 187 191 195 197 195 197 198 202 199 198 198 195 202 199 206 225 257 272 288 302 316 333 29 113 109 78 67 71 82 95 74 74 71 77 77 77 68 68
193 202 196 196 195 191 193 196 203 206 202 203 204 208 206 210 215 221 241 244 255 265 271 299 302 299 26 99 136 170 165 139 115 81 82 46 35 42 43 43 45 54 61
194 201 200 201 199 197 196 198 201 207 212 213 214 217 218 213 218 225 227 220 231 254 286 288 284 288 294 232 158 170 175 172 171 143 111 82 350 305 321 332 340 352 19
197 198 202 205 204 203 201 203 205 209 212 216 224 234 240 239 241 235 226 223 238 250 262 273 274 268 269 273 251 229 228 215 188 166 108 104 341 319 288 300 310 316 323
202 198 205 209 208 207 207 207 211 216 220 226 232 242 246 248 242 237 233 232 241 258 268 271 268 271 271 264 263 259 252 248 235 215 208 153 307 302 309 288 291 291 296
208 203 212 214 214 216 216 215 216 217 220 225 231 218 227 236 230 227 236 243 247 258 265 271 277 278 273 267 260 255 251 247 243 236 223 175 209 242 261 280 288 301 306
215 209 218 215 218 221 221 221 219 215 218 225 230 227 238 242 239 240 245 249 257 261 264 265 269 272 271 267 261 251 245 240 240 238 231 215 245 246 246 258 260 266 278
221 221 220 216 216 221 226 224 221 218 213 222 228 236 246 249 244 238 242 244 248 253 257 263 259 247 242 242 247 242 236 233 236 242 241 246 262 259 256 262 267 266 267
225 227 222 220 218 220 222 224 224 216 215 223 231 235 248 246 239 235 233 232 237 243 246 246 239 234 237 245 249 248 246 249 253 248 239 255 275 273 272 271 273 273 271
234 235 226 225 222 221 220 220 222 219 219 224 233 235 243 241 238 236 233 232 230 229 223 220 224 228 235 249 261 266 266 264 265 258 260 271 267 270 272 272 275 275 275
243 237 232 229 227 224 223 224 223 223 223 226 231 235 236 234 229 229 226 227 226 225 222 219 220 226 236 243 251 261 267 270 270 272 276 275 274 274 273 276 275 275 276
250 247 238 234 231 227 224 226 227 225 226 228 232 235 231 229 230 227 222 222 221 219 218 218 219 222 226 231 235 244 254 263 270 274 277 277 277 278 281 281 279 277 280
259 247 245 238 234 231 228 229 232 229 228 228 228 230 229 227 227 224 223 219 219 215 215 215 217 221 225 229 233 240 248 255 261 266 271 271 269 268 271 276 280 286 289
242 245 247 241 237 234 232 232 234 232 235 231 231 228 230 226 227 225 224 222 221 216 219 218 220 223 225 230 237 245 253 263 273 275 275 274 272 270 271 276 280 284 289
250 241 243 245 240 238 236 234 235 232 232 238 230 230 230 228 230 228 226 226 224 220 221 220 222 224 226 228 232 239 247 255 262 269 277 275 275 272 267 271 277 290 359
267 253 247 245 244 240 240 238 239 237 236 236 234 235 236 233 233 231 229 227 226 225 224 224 224 224 225 226 228 231 238 246 255 261 267 267 261 256 248 230 190 175 172
272 268 250 250 249 244 244 245 240 240 237 238 237 237 238 234 235 235 233 232 230 228 225 224 224 225 227 227 229 232 239 247 255 262 265 264 256 250 241 209 181 188 218
258 257 255 250 249 251 249 248 244 241 243 240 240 240 240 236 235 235 235 234 233 232 229 228 227 226 226 227 230 234 241 247 253 257 257 253 249 238 231 243 216 200 219
266 253 257 253 252 251 248 242 243 242 242 242 240 241 241 239 235 236 236 236 235 234 232 230 229 228 227 227 229 232 235 241 248 252 252 247 239 235 229 224 228 234 237
273 255 240 245 253 251 247 242 240 242 242 241 241 241 242 241 238 237 238 237 236 234 231 230 230 227 227 227 227 230 235 243 245 249 251 250 243 238 233 229 227 224 231
11 343 260 245 249 246 241 236 238 241 244 242 239 241 241 244 242 238 238 238 238 238 237 235 232 229 226 226 224 227 230 236 237 239 242 242 242 238 236 234 233 233 235
28 14 12 281 245 255 235 241 237 239 243 248 247 243 242 242 243 240 238 238 241 240 238 236 233 230 225 228 224 228 229 238 236 235 238 238 235 233 235 235 237 234 238
47 38 30 29 32 261 258 248 244 229 240 244 248 246 245 245 247 246 243 241 242 241 241 240 236 234 232 230 221 220 212 228 228 233 235 236 234 233 235 232 237 238 238
51 56 55 53 50 48 34 308 263 258 263 261 259 257 254 256 253 251 249 244 244 243 241 241 239 238 234 235 224 224 223 208 199 220 233 231 232 232 231 233 235 235 235
46 47 47 46 47 45 44 52 5 312 288 261 260 269 269 268 267 261 258 251 245 244 243 243 241 237 236 237 236 233 228 226 221 219 220 228 231 232 233 236 238 237 239
39 37 35 36 39 38 32 22 17 347 314 292 274 283 281 284 278 270 264 257 251 248 246 245 244 241 239 238 238 236 237 234 232 226 224 234 238 236 234 237 240 238 240
Wind_Speed_850mb
28 33 42 42 41 37 34 32 29 26 23 21 18 15 14 12 9 7 6 6 6 7 10 10 8 8 8 2 3 2 3 4 5 7 9 8 9 12 14 14 14 15 16
31 34 41 41 40 39 35 32 29 25 24 22 21 22 19 15 13 11 9 6 6 8 6 6 7 5 3 4 4 4 3 3 2 4 6 7 4 4 7 8 8 9 8
28 37 40 40 40 39 36 33 30 27 24 21 21 18 19 20 20 17 16 14 12 14 8 7 6 7 4 2 4 4 5 5 3 4 7 3 9 4 5 6 8 8 6
25 39 42 42 41 41 37 34 32 30 27 24 23 22 23 25 26 21 19 19 19 20 14 12 11 10 7 7 6 5 6 5 5 5 5 6 3 4 8 8 8 8 5
24 40 41 45 42 41 40 38 36 34 31 28 24 24 25 29 26 22 20 21 22 23 17 17 16 16 14 13 13 12 11 10 7 8 8 8 4 5 4 8 8 8 9
26 35 41 42 46 42 41 39 38 37 33 30 26 25 22 22 19 18 18 20 24 23 19 20 20 17 16 15 14 15 15 15 15 13 9 10 22 15 7 9 9 7 9
29 35 40 40 46 47 45 43 41 38 36 36 36 34 25 22 20 20 21 22 22 20 20 20 16 16 15 12 11 9 11 13 17 17 16 15 22 16 14 15 15 14 12
29 35 40 41 45 46 46 45 45 42 43 43 41 32 27 24 20 20 21 21 21 20 19 17 13 9 7 5 5 4 5 7 9 11 13 22 18 17 17 18 19 18 18
29 35 40 41 45 47 47 47 47 47 50 50 47 34 32 28 23 23 24 22 22 20 17 14 12 10 8 7 7 7 7 8 9 9 11 18 15 18 16 19 21 22 21
30 36 41 43 47 51 51 52 49 49 52 53 51 43 38 31 27 26 26 25 24 23 20 18 16 13 10 9 9 9 9 9 10 12 16 14 16 17 17 18 21 22 23
36 40 43 46 47 50 53 55 56 56 55 56 55 47 43 36 35 35 32 30 28 25 23 20 17 14 12 11 11 11 12 12 12 14 16 15 17 18 18 18 19 21 23
43 45 47 49 50 51 52 54 59 61 62 62 59 53 49 45 42 40 39 36 34 31 28 25 21 19 17 15 14 13 13 13 13 15 15 16 17 19 19 19 20 22 23
41 47 51 53 54 56 58 59 60 62 66 65 64 59 53 51 50 46 45 43 40 37 35 31 27 24 20 17 14 13 12 13 14 15 15 16 17 17 18 19 21 22 23
42 47 52 56 60 61 64 66 64 62 66 69 67 63 61 59 57 51 51 48 46 42 40 35 31 26 23 20 17 15 14 14 15 16 15 16 17 16 16 16 17 19 20
48 51 56 58 63 64 68 69 67 67 66 66 63 68 66 63 61 56 57 53 50 46 46 39 36 32 28 24 21 18 17 15 16 16 17 17 17 17 15 13 12 12 3
48 52 55 60 60 65 70 71 73 72 72 70 70 70 68 66 65 63 62 59 55 53 49 45 40 37 34 30 27 23 20 17 16 16 16 15 16 17 17 12 7 4 16
53 47 53 52 57 61 68 73 75 76 75 76 74 75 73 71 72 68 67 65 61 59 56 53 49 45 39 34 30 25 22 19 18 17 16 16 15 17 19 17 15 18 21
43 49 52 52 56 58 64 71 77 81 83 80 79 79 79 76 77 75 73 71 67 64 61 59 55 50 45 40 36 31 26 23 21 20 19 19 18 17 19 19 23 37 35
36 36 44 53 62 66 70 72 74 76 82 82 80 80 79 79 79 81 78 75 73 70 68 65 61 56 51 46 41 37 33 29 25 23 23 23 24 24 25 24 23 24 26
21 24 28 34 44 52 59 65 71 69 75 75 75 78 79 81 80 82 82 80 78 75 74 71 66 61 56 51 46 41 37 34 30 30 29 29 28 27 28 29 31 32 33
16 10 13 21 30 38 44 54 61 70 71 71 75 75 76 80 81 82 86 85 84 80 77 74 71 67 61 56 49 42 39 40 37 38 36 36 34 33 32 32 33 32 32
24 13 7 4 16 25 27 33 36 35 48 55 64 69 76 80 84 85 87 90 90 84 81 80 78 76 69 67 57 41 26 39 44 43 44 43 41 39 38 37 37 32 31
45 39 24 14 6 4 15 24 27 34 40 33 48 57 69 73 82 86 89 92 93 91 91 88 87 86 81 76 67 36 16 21 34 46 50 46 43 40 40 39 37 36 35
50 50 52 45 33 22 11 7 13 16 24 23 32 40 53 60 69 78 84 88 96 97 97 96 93 91 86 85 76 77 58 26 17 16 38 44 46 46 48 47 44 41 39
49 49 45 43 40 37 28 14 8 14 18 20 21 31 39 45 49 54 70 84 96 102 101 100 99 100 98 93 88 85 80 58 40 31 27 42 50 54 55 52 50 47 42
47 47 46 45 45 41 33 26 18 12 13 18 21 30 36 39 45 45 53 67 84 99 104 104 103 103 102 100 99 95 89 87 79 59 40 36 46 53 64 63 60 56 49
Wind_Direction_850mb
200 197 192 191 191 187 191 195 197 195 197 198 202 199 198 198 195 202 199 206 225 257 272 288 302 316 333 29 113 109 78 67 71 82 95 74 74 71 77 77 77 68 68
193 202 196 196 195 191 193 196 203 206 202 203 204 208 206 210 215 221 241 244 255 265 271 299 302 299 26 99 136 170 165 139 115 81 82 46 35 42 43 43 45 54 61
194 201 200 201 199 197 196 198 201 207 212 213 214 217 218 213 218 225 227 220 231 254 286 288 284 288 294 232 158 170 175 172 171 143 111 82 350 305 321 332 340 352 19
197 198 202 205 204 203 201 203 205 209 212 216 224 234 240 239 241 235 226 223 238 250 262 273 274 268 269 273 251 229 228 215 188 166 108 104 341 319 288 300 310 316 323
202 198 205 209 208 207 207 207 211 216 220 226 232 242 246 248 242 237 233 232 241 258 268 271 268 271 271 264 263 259 252 248 235 215 208 153 307 302 309 288 291 291 296
208 203 212 214 214 216 216 215 216 217 220 225 231 218 227 236 230 227 236 243 247 258 265 271 277 278 273 267 260 255 251 247 243 236 223 175 209 242 261 280 288 301 306
215 209 218 215 218 221 221 221 219 215 218 225 230 227 238 242 239 240 245 249 257 261 264 265 269 272 271 267 261 251 245 240 240 238 231 215 245 246 246 258 260 266 278
221 221 220 216 216 221 226 224 221 218 213 222 228 236 246 249 244 238 242 244 248 253 257 263 259 247 242 242 247 242 236 233 236 242 241 246 262 259 256 262 267 266 267
225 227 222 220 218 220 222 224 224 216 215 223 231 235 248 246 239 235 233 232 237 243 246 246 239 234 237 245 249 248 246 249 253 248 239 255 275 273 272 271 273 273 271
234 235 226 225 222 221 220 220 222 219 219 224 233 235 243 241 238 236 233 232 230 229 223 220 224 228 235 249 261 266 266 264 265 258 260 271 267 270 272 272 275 275 275
243 237 232 229 227 224 223 224 223 223 223 226 231 235 236 234 229 229 226 227 226 225 222 219 220 226 236 243 251 261 267 270 270 272 276 275 274 274 273 276 275 275 276
250 247 238 234 231 227 224 226 227 225 226 228 232 235 231 229 230 227 222 222 221 219 218 218 219 222 226 231 235 244 254 263 270 274 277 277 277 278 281 281 279 277 280
259 247 245 238 234 231 228 229 232 229 228 228 228 230 229 227 227 224 223 219 219 215 215 215 217 221 225 229 233 240 248 255 261 266 271 271 269 268 271 276 280 286 289
242 245 247 241 237 234 232 232 234 232 235 231 231 228 230 226 227 225 224 222 221 216 219 218 220 223 225 230 237 245 253 263 273 275 275 274 272 270 271 276 280 284 289
250 241 243 245 240 238 236 234 235 232 232 238 230 230 230 228 230 228 226 226 224 220 221 220 222 224 226 228 232 239 247 255 262 269 277 275 275 272 267 271 277 290 359
267 253 247 245 244 240 240 238 239 237 236 236 234 235 236 233 233 231 229 227 226 225 224 224 224 224 225 226 228 231 238 246 255 261 267 267 261 256 248 230 190 175 172
272 268 250 250 249 244 244 245 240 240 237 238 237 237 238 234 235 235 233 232 230 228 225 224 224 225 227 227 229 232 239 247 255 262 265 264 256 250 241 209 181 188 218
258 257 255 250 249 251 249 248 244 241 243 240 240 240 240 236 235 235 235 234 233 232 229 228 227 226 226 227 230 234 241 247 253 257 257 253 249 238 231 243 216 200 219
266 253 257 253 252 251 248 242 243 242 242 242 240 241 241 239 235 236 236 236 235 234 232 230 229 228 227 227 229 232 235 241 248 252 252 247 239 235 229 224 228 234 237
273 255 240 245 253 251 247 242 240 242 242 241 241 241 242 241 238 237 238 237 236 234 231 230 230 227 227 227 227 230 235 243 245 249 251 250 243 238 233 229 227 224 231
11 343 260 245 249 246 241 236 238 241 244 242 239 241 241 244 242 238 238 238 238 238 237 235 232 229 226 226 224 227 230 236 237 239 242 242 242 238 236 234 233 233 235
28 14 12 281 245 255 235 241 237 239 243 248 247 243 242 242 243 240 238 238 241 240 238 236 233 230 225 228 224 228 229 238 236 235 238 238 235 233 235 235 237 234 238
47 38 30 29 32 261 258 248 244 229 240 244 248 246 245 245 247 246 243 241 242 241 241 240 236 234 232 230 221 220 212 228 228 233 235 236 234 233 235 232 237 238 238
51 56 55 53 50 48 34 308 263 258 263 261 259 257 254 256 253 251 249 244 244 243 241 241 239 238 234 235 224 224 223 208 199 220 233 231 232 232 231 233 235 235 235
46 47 47 46 47 45 44 52 5 312 288 261 260 269 269 268 267 261 258 251 245 244 243 243 241 237 236 237 236 233 228 226 221 219 220 228 231 232 233 236 238 237 239
39 37 35 36 39 38 32 22 17 347 314 292 274 283 281 284 278 270 264 257 251 248 246 245 244 241 239 238 238 236 237 234 232 226 224 234 238 236 234 237 240 238 240